sat.trackr.live / text

‹ back to catalog

STARLINK-11697 [DTC]

NORAD 63553 · 2025-075F

PAYLOAD ACTIVE UNKNOWN

§ Identity

Operator
Country
US
Launch date
2025-04-13
Launch site
AFETR
Launch vehicle
Mass (kg)
RCS (m²)

Purposes: comms

External: N2YO · Heavens-Above · Gunter

§ Orbital elements

Epoch: 2026-05-25T03:12:39.487104Z

Period
91.66 min
Inclination
42.9973°
Eccentricity
0.0000661
Mean motion
15.70983748 rev/d
Perigee alt
355.6 km
Apogee alt
356.5 km
Semi-major
6,734.2 km
B*
1.2153e-3
RAAN
52.8077°
Arg perigee
140.2496°
Mean anomaly
219.8420°
Rev number
6,527

§ Raw data

STARLINK-11697 [DTC]1 63553U 25075F   26145.13379036  .00159482  00000+0  12153-2 0  99932 63553  42.9973  52.8077 0000661 140.2496 219.8420 15.70983748 65274

JSON: /api/v1/satellites/63553 · /tle

For live sub-satellite position, see the globe view (requires WebGL).

§ Visibility from observer

Set your observer location to see the next 7 days of passes ≥ 10°. The values pass through the URL so the page stays shareable.

No JS? Fill the form by hand. The geolocation button needs JavaScript.